Regional Weather Roundup
Issued by NWS

Home | Current Version | Previous Version | Graphics & Text | Print | Product List | Glossary On
Versions: 1 2 3 4 5 6 7 8 9 10 11 12 13 14 15 16 17 18 19 20 21 22 23 24 25 26 27 28 29 30 31 32 33 34 35 36 37 38 39 40 41 42 43 44 45 46 47 48 49 50
000
ASUS44 KMEG 290410
RWRTN
TENNESSEE HOURLY STATE WEATHER ROUNDUP
NATIONAL WEATHER SERVICE MEMPHIS TN
1100 PM CDT TUE JUL 28 2015

TNZ002-004-019-021-049-052-054-088>092-290500-
WEST TENNESSEE

CITY           SKY/WX    TMP DP  RH WIND       PRES   REMARKS
MEMPHIS INTL   CLEAR     87  75  67 S3        30.00R HX  96
NWS MEMPHIS      N/A     82 N/A N/A MISG        N/A
JACKSON        PTCLDY    82  73  74 S6        30.00F
DYERSBURG        N/A    N/A N/A N/A MISG        N/A
PARIS          CLEAR     72  72 100 CALM      30.02S
LEXINGTON      CLEAR     72  70  94 CALM      30.01F
$$

TNZ008-025-027-028-033-062-065-066-290500-
NORTH MIDDLE TENNESSEE

CITY           SKY/WX    TMP DP  RH WIND       PRES   REMARKS
NASHVILLE      CLOUDY    77  75  93 N7        30.03R
CLARKSVILLE    CLOUDY    74  72  93 S3        29.99F
SMYRNA         CLOUDY    77  75  93 N7        30.03R
CROSSVILLE     MOCLDY    72  69  90 CALM      30.09R
$$

TNZ061-075-076-078-094-096-097-290500-
SOUTH MIDDLE TENNESSEE

CITY           SKY/WX    TMP DP  RH WIND       PRES   REMARKS
FAYETTEVILLE   CLEAR     73  73 100 CALM      30.04S
TULLAHOMA      CLEAR     73  72  94 CALM      30.04F
WINCHESTER     CLEAR     73  73 100 CALM      30.04S
MCMINNVILLE    CLEAR     75  75 100 CALM      30.04R
SHELBYVILLE    CLEAR     75  75 100 CALM      30.03S
$$

TNZ017-018-042-046-047-290500-
NORTHEAST TENNESSEE

CITY           SKY/WX    TMP DP  RH WIND       PRES   REMARKS
TRI CITIES     MOCLDY    72  70  93 CALM      30.05R
ELIZABETHTON   PTCLDY    70  68  94 CALM      30.06S
$$

TNZ012-013-036-069-073-074-290500-
CENTRAL EAST TENNESSEE

CITY           SKY/WX    TMP DP  RH WIND       PRES   REMARKS
KNOXVILLE      CLOUDY    79  72  79 CALM      30.01F
OAK RIDGE      CLOUDY    76  73  91 CALM      30.02F
GATLINBURG     CLEAR     75  72  88 CALM      30.01F
MORRISTOWN     CLEAR     75  73  94 CALM      30.04S
$$

TNZ083-085-099-290500-
SOUTHEAST TENNESSEE

CITY           SKY/WX    TMP DP  RH WIND       PRES   REMARKS
CHATTANOOGA    MOCLDY    80  75  84 N3        30.01F
$$

SKY/WX REPORTED AS FAIR MEANS FEW OR NO CLOUDS BELOW
12 THOUSAND FEET.



USA.gov is the U.S. government's official web portal to all federal, state and local government web resources and services.